This is the latest recevied weather packets stored in our database for station/object R1ZCU-14. If no packets are shown the sender has not sent any weather packets the latest 10 day(s).
| Time | Temp. | Humidity | Pressure | Rain* | Wind** | Luminosity | Snow |
|---|---|---|---|---|---|---|---|
| 1787939061 | 10.56° C | 82% | 1016.7 hPa | - | - | - | - |
| 1787938461 | 10.56° C | 80% | 1016.8 hPa | - | - | - | - |
| 1787937860 | 10.56° C | 81% | 1016.9 hPa | - | - | - | - |
| 1787937260 | 11.11° C | 78% | 1016.8 hPa | - | - | - | - |
| 1787936659 | 11.67° C | 74% | 1016.9 hPa | - | - | - | - |
| 1787936059 | 11.67° C | 71% | 1016.9 hPa | - | - | - | - |
| 1787935458 | 12.22° C | 66% | 1017 hPa | - | - | - | - |
| 1787934857 | 12.22° C | 64% | 1017 hPa | - | - | - | - |
| 1787934257 | 12.78° C | 63% | 1017.1 hPa | - | - | - | - |
| 1787933657 | 12.78° C | 63% | 1017.2 hPa | - | - | - | - |
| 1787933056 | 12.78° C | 64% | 1017.3 hPa | - | - | - | - |
| 1787932455 | 12.78° C | 64% | 1017.3 hPa | - | - | - | - |
| 1787931855 | 12.78° C | 63% | 1017.3 hPa | - | - | - | - |
| 1787931255 | 13.33° C | 61% | 1017.4 hPa | - | - | - | - |
| 1787930654 | 12.78° C | 59% | 1017.4 hPa | - | - | - | - |
| 1787930053 | 12.78° C | 60% | 1017.5 hPa | - | - | - | - |
| 1787929453 | 12.78° C | 62% | 1017.5 hPa | - | - | - | - |
| 1787928853 | 12.78° C | 58% | 1017.5 hPa | - | - | - | - |
| 1787928252 | 12.78° C | 61% | 1017.6 hPa | - | - | - | - |
| 1787927652 | 12.78° C | 59% | 1017.7 hPa | - | - | - | - |
| 1787927051 | 12.78° C | 61% | 1017.9 hPa | - | - | - | - |
| 1787926451 | 12.78° C | 64% | 1018 hPa | - | - | - | - |
| 1787925850 | 12.78° C | 62% | 1018 hPa | - | - | - | - |
| 1787925249 | 12.78° C | 61% | 1018.1 hPa | - | - | - | - |
| 1787924649 | 12.78° C | 63% | 1018.3 hPa | - | - | - | - |
* Rain since midnight (hover to see other rain measurements)
** Current wind speed in m/s (hover to see current wind gust speed)